Ashland, WI

6:03 AM CDT on May 24, 2017 (GMT -0500)
Kennedy Memorial

Weather History for KASX - January, 2014

Change the Weather History Date:

Tuesday, January 7, 2014

  Actual Average Record
Temperature  
Mean Temperature -12 °F -  
Max Temperature -2 °F 19 °F 48 °F (2003)
Min Temperature -22 °F 0 °F -25 °F (1968)
Degree Days  
Heating Degree Days 77    
Moisture  
Dew Point -21 °F    
Average Humidity 66    
Maximum Humidity 71    
Minimum Humidity 56    
Precipitation  
Precipitation 0.00 in - - ()
Sea Level Pressure  
Sea Level Pressure 30.17 in    
Wind  
Wind Speed 11 mph (WSW)    
Max Wind Speed 15 mph    
Max Gust Speed 23 mph    
Visibility 10 miles    
Events      
Averages and records for this station are not official NWS values.
T = Trace of Precipitation, MM = Missing Value Source: NWS Daily Summary

Daily Weather History Graph

Daily Weather History Graph

Search for Another Location

Airport or City:

Trip Planner

Search our weather history database for the weather conditions in past years. The results will help you decide how hot, cold, wet, or windy it might be!

Date:

Astronomy

Jan. 07, 2014 Rise Set
Actual Time 7:46 AM CST 4:33 PM CST
Civil Twilight 7:12 AM CST 5:07 PM CST
Nautical Twilight 6:34 AM CST 5:45 PM CST
Astronomical Twilight 5:58 AM CST 6:22 PM CST
Moon 11:08 AM CST (1/7) No Moon Set
Length of Visible Light 9h 55m
Length of Day
8h 46m
Waxing Crescent, 46% of the Moon is Illuminated
Jan 7
Waxing Crescent
Jan 7
First Quarter
Jan 15
Full
Jan 23
Last Quarter
Jan 30
New

Hourly Weather History & Observations

Time (CST) Temp. Windchill Dew Point Humidity Pressure Visibility Wind Dir Wind Speed Gust Speed Precip Events Conditions
12:53 AM -20.0 °F -42.2 °F -27.9 °F 67% 30.11 in 10.0 mi WSW 11.5 mph - N/A   Clear
1:53 AM -20.9 °F -43.3 °F -29.0 °F 66% 30.12 in 10.0 mi WSW 11.5 mph - N/A   Clear
2:53 AM -20.9 °F -41.0 °F -29.0 °F 66% 30.12 in 10.0 mi WSW 9.2 mph - N/A   Clear
3:53 AM -22.0 °F -46.6 °F -29.0 °F 70% 30.12 in 10.0 mi WSW 13.8 mph 20.7 mph N/A   Clear
4:53 AM -20.9 °F -44.3 °F -29.0 °F 66% 30.12 in 10.0 mi WSW 12.7 mph - N/A   Clear
5:53 AM -22.0 °F -43.6 °F -29.0 °F 70% 30.11 in 10.0 mi WSW 10.4 mph 18.4 mph N/A   Clear
6:53 AM -20.9 °F -43.3 °F -27.9 °F 70% 30.12 in 10.0 mi WSW 11.5 mph - N/A   Clear
7:53 AM -18.9 °F -39.8 °F -26.0 °F 70% 30.14 in 10.0 mi WSW 10.4 mph - N/A   Clear
8:53 AM -18.0 °F -40.7 °F -25.1 °F 70% 30.16 in 10.0 mi WSW 12.7 mph 19.6 mph N/A   Clear
9:53 AM -15.0 °F -35.9 °F -23.1 °F 67% 30.17 in 10.0 mi WSW 11.5 mph 18.4 mph N/A   Clear
10:53 AM -11.0 °F -30.9 °F -18.9 °F 68% 30.17 in 10.0 mi West 11.5 mph - N/A   Clear
11:28 AM -9.4 °F -31.4 °F -18.4 °F 65% 30.06 in 10.0 mi WSW 15.0 mph - N/A   Mostly Cloudy
11:53 AM -8.0 °F -28.0 °F -17.0 °F 65% 30.15 in 10.0 mi West 12.7 mph - N/A   Overcast
12:16 PM -7.6 °F -27.5 °F -16.6 °F 65% 30.04 in 10.0 mi West 12.7 mph 23.0 mph N/A   Scattered Clouds
12:53 PM -7.1 °F -27.6 °F -17.0 °F 62% 30.14 in 10.0 mi WSW 13.8 mph 19.6 mph N/A   Clear
1:53 PM -5.1 °F -24.3 °F -16.1 °F 59% 30.14 in 10.0 mi WSW 12.7 mph 19.6 mph N/A   Clear
2:53 PM -2.9 °F -19.8 °F -15.0 °F 56% 30.17 in 10.0 mi WSW 10.4 mph - N/A   Clear
3:53 PM -4.0 °F -20.2 °F -15.0 °F 59% 30.19 in 10.0 mi WNW 9.2 mph - N/A   Clear
4:53 PM -6.0 °F -21.5 °F -17.0 °F 59% 30.22 in 10.0 mi West 8.1 mph - N/A   Clear
5:53 PM -9.9 °F -23.4 °F -18.0 °F 68% 30.24 in 10.0 mi WSW 5.8 mph - N/A   Clear
6:53 PM -11.0 °F -26.2 °F -18.0 °F 71% 30.25 in 10.0 mi WSW 6.9 mph - N/A   Clear
7:53 PM -11.0 °F -26.2 °F -18.0 °F 71% 30.25 in 10.0 mi WSW 6.9 mph - N/A   Clear
8:53 PM -11.0 °F -28.8 °F -18.9 °F 68% 30.25 in 10.0 mi WSW 9.2 mph - N/A   Clear
9:53 PM -11.0 °F -28.8 °F -18.9 °F 68% 30.27 in 10.0 mi WSW 9.2 mph - N/A   Clear
10:53 PM -9.9 °F -24.9 °F -18.0 °F 68% 30.27 in 10.0 mi SW 6.9 mph - N/A   Clear
11:53 PM -11.0 °F -26.2 °F -18.9 °F 68% 30.28 in 10.0 mi SW 6.9 mph - N/A   Clear